#Datum;Uhrzeit;WR;Pac;DaySum;Status;WR;Pac;DaySum;Status;Pdc1;Udc;Temp;WR;Pac;DaySum;Status;Pdc1;Udc;Temp;WR;Pac;DaySum;Status;Pdc1;Udc;Temp;WR;Pac;DaySum;Status;Pdc1;Pdc2;Udc1;Udc2;Temp;WR;Pac;DaySum;Status;Pdc1;Pdc2;Udc1;Udc2;Temp;WR;Pac;DaySum;Status;Pdc1;Udc;Temp;WR;Pac;DaySum;Status;Pdc1;Udc;Temp;WR;Pac;DaySum;Status;Pdc1;Udc;Temp
08.09.19;23:55:00;1;345;14688;0;2;0;8292;0;0;0;0;3;0;5352;0;0;0;0;4;0;7574;0;0;0;0;5;0;18844;0;0;0;0;0;0;6;0;13858;0;0;0;0;0;0;7;0;9824;0;0;0;0;8;0;9864;0;0;0;0;9;0;5344;0;0;0;0
08.09.19;23:50:00;1;302;14659;0;2;0;8292;0;0;0;0;3;0;5352;0;0;0;0;4;0;7574;0;0;0;0;5;0;18844;0;0;0;0;0;0;6;0;13858;0;0;0;0;0;0;7;0;9824;0;0;0;0;8;0;9864;0;0;0;0;9;0;5344;0;0;0;0
08.09.19;23:45:00;1;286;14634;0;2;0;8292;0;0;0;0;3;0;5352;0;0;0;0;4;0;7574;0;0;0;0;5;0;18844;0;0;0;0;0;0;6;0;13858;0;0;0;0;0;0;7;0;9824;0;0;0;0;8;0;9864;0;0;0;0;9;0;5344;0;0;0;0
08.09.19;23:40:00;1;280;14611;0;2;0;8292;0;0;0;0;3;0;5352;0;0;0;0;4;0;7574;0;0;0;0;5;0;18844;0;0;0;0;0;0;6;0;13858;0;0;0;0;0;0;7;0;9824;0;0;0;0;8;0;9864;0;0;0;0;9;0;5344;0;0;0;0
08.09.19;23:35:00;1;295;14587;0;2;0;8292;0;0;0;0;3;0;5352;0;0;0;0;4;0;7574;0;0;0;0;5;0;18844;0;0;0;0;0;0;6;0;13858;0;0;0;0;0;0;7;0;9824;0;0;0;0;8;0;9864;0;0;0;0;9;0;5344;0;0;0;0
08.09.19;23:30:00;1;230;14563;0;2;0;8292;0;0;0;0;3;0;5352;0;0;0;0;4;0;7574;0;0;0;0;5;0;18844;0;0;0;0;0;0;6;0;13858;0;0;0;0;0;0;7;0;9824;0;0;0;0;8;0;9864;0;0;0;0;9;0;5344;0;0;0;0
08.09.19;23:25:00;1;224;14545;0;2;0;8292;0;0;0;0;3;0;5352;0;0;0;0;4;0;7574;0;0;0;0;5;0;18844;0;0;0;0;0;0;6;0;13858;0;0;0;0;0;0;7;0;9824;0;0;0;0;8;0;9864;0;0;0;0;9;0;5344;0;0;0;0
08.09.19;23:20:00;1;253;14525;0;2;0;8292;0;0;0;0;3;0;5352;0;0;0;0;4;0;7574;0;0;0;0;5;0;18844;0;0;0;0;0;0;6;0;13858;0;0;0;0;0;0;7;0;9824;0;0;0;0;8;0;9864;0;0;0;0;9;0;5344;0;0;0;0
08.09.19;23:15:00;1;276;14504;0;2;0;8292;0;0;0;0;3;0;5352;0;0;0;0;4;0;7574;0;0;0;0;5;0;18844;0;0;0;0;0;0;6;0;13858;0;0;0;0;0;0;7;0;9824;0;0;0;0;8;0;9864;0;0;0;0;9;0;5344;0;0;0;0
08.09.19;23:10:00;1;329;14480;0;2;0;8292;0;0;0;0;3;0;5352;0;0;0;0;4;0;7574;0;0;0;0;5;0;18844;0;0;0;0;0;0;6;0;13858;0;0;0;0;0;0;7;0;9824;0;0;0;0;8;0;9864;0;0;0;0;9;0;5344;0;0;0;0
08.09.19;23:07:00;1;331;14469;0;2;0;8292;0;0;0;0;3;0;5352;0;0;0;0;4;0;7574;0;0;0;0;5;0;18844;0;0;0;0;0;0;6;0;13858;0;0;0;0;0;0;7;0;9824;0;0;0;0;8;0;9864;0;0;0;0;9;0;5344;0;0;0;0
08.09.19;23:00:00;1;229;14425;0;2;0;8292;0;0;0;0;3;0;5352;0;0;0;0;4;0;7574;0;0;0;0;5;0;18844;0;0;0;0;0;0;6;0;13858;0;0;0;0;0;0;7;0;9824;0;0;0;0;8;0;9864;0;0;0;0;9;0;5344;0;0;0;0
08.09.19;22:55:00;1;254;14406;0;2;0;8292;0;0;0;0;3;0;5352;0;0;0;0;4;0;7574;0;0;0;0;5;0;18844;2;0;0;0;0;0;6;0;13858;2;0;0;0;0;0;7;0;9824;0;0;0;0;8;0;9864;0;0;0;0;9;0;5344;0;0;0;0
08.09.19;22:50:00;1;367;14383;0;2;0;8292;0;0;0;0;3;0;5352;0;0;0;0;4;0;7574;0;0;0;0;5;0;18844;2;0;0;0;0;0;6;0;13858;2;0;0;0;0;0;7;0;9824;0;0;0;0;8;0;9864;0;0;0;0;9;0;5344;0;0;0;0
08.09.19;22:45:00;1;411;14352;0;2;0;8292;0;0;0;0;3;0;5352;0;0;0;0;4;0;7574;0;0;0;0;5;0;18844;2;0;0;0;0;0;6;0;13858;2;0;0;0;0;0;7;0;9824;0;0;0;0;8;0;9864;0;0;0;0;9;0;5344;0;0;0;0
08.09.19;22:40:00;1;450;14318;0;2;0;8292;0;0;0;0;3;0;5352;0;0;0;0;4;0;7574;0;0;0;0;5;0;18844;2;0;0;0;0;0;6;0;13858;2;0;0;0;0;0;7;0;9824;0;0;0;0;8;0;9864;0;0;0;0;9;0;5344;0;0;0;0
08.09.19;22:35:00;1;463;14279;0;2;0;8292;0;0;0;0;3;0;5352;0;0;0;0;4;0;7574;0;0;0;0;5;0;18844;2;0;0;0;0;0;6;0;13858;2;0;0;0;0;0;7;0;9824;0;0;0;0;8;0;9864;0;0;0;0;9;0;5344;0;0;0;0
08.09.19;22:30:00;1;480;14240;0;2;0;8292;0;0;0;0;3;0;5352;0;0;0;0;4;0;7574;0;0;0;0;5;0;18844;2;0;0;0;0;0;6;0;13858;2;0;0;0;0;0;7;0;9824;0;0;0;0;8;0;9864;0;0;0;0;9;0;5344;0;0;0;0
08.09.19;22:25:00;1;459;14201;0;2;0;8292;0;0;0;0;3;0;5352;0;0;0;0;4;0;7574;0;0;0;0;5;0;18844;2;0;0;0;0;0;6;0;13858;2;0;0;0;0;0;7;0;9824;0;0;0;0;8;0;9864;0;0;0;0;9;0;5344;0;0;0;0
08.09.19;22:20:00;1;515;14162;0;2;0;8292;0;0;0;0;3;0;5352;0;0;0;0;4;0;7574;0;0;0;0;5;0;18844;2;0;0;0;0;0;6;0;13858;2;0;0;0;0;0;7;0;9824;0;0;0;0;8;0;9864;0;0;0;0;9;0;5344;0;0;0;0
08.09.19;22:15:00;1;512;14119;0;2;0;8292;0;0;0;0;3;0;5352;0;0;0;0;4;0;7574;0;0;0;0;5;0;18844;2;0;0;0;0;0;6;0;13858;2;0;0;0;0;0;7;0;9824;0;0;0;0;8;0;9864;0;0;0;0;9;0;5344;0;0;0;0
08.09.19;22:10:00;1;522;14075;0;2;0;8292;0;0;0;0;3;0;5352;0;0;0;0;4;0;7574;0;0;0;0;5;0;18844;2;0;0;0;0;0;6;0;13858;2;0;0;0;0;0;7;0;9824;0;0;0;0;8;0;9864;0;0;0;0;9;0;5344;0;0;0;0
08.09.19;22:05:00;1;404;14036;0;2;0;8292;0;0;0;0;3;0;5352;0;0;0;0;4;0;7574;0;0;0;0;5;0;18844;2;0;0;0;0;0;6;0;13858;2;0;0;0;0;0;7;0;9824;0;0;0;0;8;0;9864;0;0;0;0;9;0;5344;0;0;0;0
08.09.19;22:00:00;1;417;14002;0;2;0;8292;0;0;0;0;3;0;5352;0;0;0;0;4;0;7574;0;0;0;0;5;0;18844;2;0;0;0;0;0;6;0;13858;2;0;0;0;0;0;7;0;9824;0;0;0;0;8;0;9864;0;0;0;0;9;0;5344;0;0;0;0
08.09.19;21:55:00;1;512;13967;0;2;0;8292;0;0;0;0;3;0;5352;0;0;0;0;4;0;7574;0;0;0;0;5;0;18844;2;0;0;0;0;0;6;0;13858;2;0;0;0;0;0;7;0;9824;0;0;0;0;8;0;9864;0;0;0;0;9;0;5344;0;0;0;0
08.09.19;21:50:00;1;526;13924;0;2;0;8292;0;0;0;0;3;0;5352;0;0;0;0;4;0;7574;0;0;0;0;5;0;18844;2;0;0;0;0;0;6;0;13858;2;0;0;0;0;0;7;0;9824;0;0;0;0;8;0;9864;0;0;0;0;9;0;5344;0;0;0;0
08.09.19;21:45:00;1;397;13884;0;2;0;8292;0;0;0;0;3;0;5352;0;0;0;0;4;0;7574;0;0;0;0;5;0;18844;2;0;0;0;0;0;6;0;13858;2;0;0;0;0;0;7;0;9824;0;0;0;0;8;0;9864;0;0;0;0;9;0;5344;0;0;0;0
08.09.19;21:40:00;1;413;13851;0;2;0;8292;0;0;0;0;3;0;5352;0;0;0;0;4;0;7574;0;0;0;0;5;0;18844;2;0;0;0;0;0;6;0;13858;0;0;0;0;0;0;7;0;9824;0;0;0;0;8;0;9864;0;0;0;0;9;0;5344;0;0;0;0
08.09.19;21:35:00;1;395;13816;0;2;0;8292;0;0;0;0;3;0;5352;0;0;0;0;4;0;7574;0;0;0;0;5;0;18844;2;0;0;0;0;0;6;0;13858;2;0;0;0;0;0;7;0;9824;0;0;0;0;8;0;9864;0;0;0;0;9;0;5344;0;0;0;0
08.09.19;21:30:00;1;434;13784;0;2;0;8292;0;0;0;0;3;0;5352;0;0;0;0;4;0;7574;0;0;0;0;5;0;18844;2;0;0;0;0;0;6;0;13858;2;0;0;0;0;0;7;0;9824;0;0;0;0;8;0;9864;0;0;0;0;9;0;5344;0;0;0;0
08.09.19;21:25:00;1;438;13747;0;2;0;8292;0;0;0;0;3;0;5352;0;0;0;0;4;0;7574;0;0;0;0;5;0;18844;2;0;0;0;0;0;6;0;13858;2;0;0;0;0;0;7;0;9824;0;0;0;0;8;0;9864;0;0;0;0;9;0;5344;0;0;0;0
08.09.19;21:20:00;1;415;13711;0;2;0;8292;0;0;0;0;3;0;5352;0;0;0;0;4;0;7574;0;0;0;0;5;0;18844;2;0;0;0;0;0;6;0;13858;2;0;0;0;0;0;7;0;9824;0;0;0;0;8;0;9864;0;0;0;0;9;0;5344;0;0;0;0
08.09.19;21:15:00;1;384;13677;0;2;0;8292;0;0;0;0;3;0;5352;0;0;0;0;4;0;7574;0;0;0;0;5;0;18844;2;0;0;0;0;0;6;0;13858;2;0;0;0;0;0;7;0;9824;0;0;0;0;8;0;9864;0;0;0;0;9;0;5344;0;0;0;0
08.09.19;21:10:00;1;405;13644;0;2;0;8292;0;0;0;0;3;0;5352;0;0;0;0;4;0;7574;0;0;0;0;5;0;18844;2;0;0;0;0;0;6;0;13858;2;0;0;0;0;0;7;0;9824;0;0;0;0;8;0;9864;0;0;0;0;9;0;5344;0;0;0;0
08.09.19;21:05:00;1;413;13610;0;2;0;8292;0;0;0;0;3;0;5352;0;0;0;0;4;0;7574;0;0;0;0;5;0;18844;2;0;0;0;0;0;6;0;13858;2;0;0;0;0;0;7;0;9824;0;0;0;0;8;0;9864;0;0;0;0;9;0;5344;0;0;0;0
08.09.19;21:00:00;1;422;13575;0;2;0;8292;0;0;0;0;3;0;5352;0;0;0;0;4;0;7574;0;0;0;0;5;0;18844;2;0;0;0;0;0;6;0;13858;2;0;0;0;0;0;7;0;9824;0;0;0;0;8;0;9864;0;0;0;0;9;0;5344;0;0;0;0
08.09.19;20:55:00;1;400;13539;0;2;0;8292;0;0;0;0;3;0;5352;0;0;0;0;4;0;7574;0;0;0;0;5;0;18844;2;0;0;0;0;0;6;0;13858;2;0;0;0;0;0;7;0;9824;0;0;0;0;8;0;9864;0;0;0;0;9;0;5344;0;0;0;0
08.09.19;20:50:00;1;587;13506;0;2;0;8292;0;0;0;0;3;0;5352;0;0;0;0;4;0;7574;0;0;0;0;5;0;18844;2;0;0;0;0;0;6;0;13858;2;0;0;0;0;0;7;0;9824;0;0;0;0;8;0;9864;0;0;0;0;9;0;5344;0;0;0;0
08.09.19;20:45:00;1;381;13453;0;2;0;8292;0;0;0;0;3;0;5352;0;0;0;0;4;0;7574;0;0;0;0;5;0;18844;2;0;0;0;0;0;6;0;13858;2;0;0;0;0;0;7;0;9824;0;0;0;0;8;0;9864;0;0;0;0;9;0;5344;0;0;0;0
08.09.19;20:40:00;1;508;13420;0;2;0;8292;0;0;0;0;3;0;5352;0;0;0;0;4;0;7574;0;0;0;0;5;0;18844;2;0;0;0;0;0;6;0;13858;2;0;0;0;0;0;7;0;9824;0;0;0;0;8;0;9864;0;0;0;0;9;0;5344;0;0;0;0
08.09.19;20:35:00;1;534;13377;0;2;0;8292;0;0;0;0;3;0;5352;0;0;0;0;4;0;7574;0;0;0;0;5;0;18844;2;0;0;0;0;0;6;0;13858;2;0;0;0;0;0;7;0;9824;0;0;0;0;8;0;9864;0;0;0;0;9;0;5344;0;0;0;0
08.09.19;20:30:00;1;517;13331;0;2;0;8292;0;0;0;0;3;0;5352;0;0;0;0;4;0;7574;0;0;0;0;5;0;18844;2;0;0;0;0;0;6;0;13858;2;0;0;0;0;0;7;0;9824;0;0;0;0;8;0;9864;0;0;0;0;9;0;5344;0;0;0;0
08.09.19;20:25:00;1;522;13289;0;2;0;8292;0;0;0;0;3;0;5352;0;0;0;0;4;0;7574;0;0;0;0;5;0;18844;2;0;0;0;0;0;6;0;13858;2;0;0;0;0;0;7;0;9824;0;0;0;0;8;0;9864;0;0;0;0;9;0;5344;0;0;0;0
08.09.19;20:20:00;1;1136;13245;0;2;0;8292;0;0;0;0;3;0;5352;0;0;0;0;4;0;7574;0;0;0;0;5;0;18844;2;0;0;0;0;0;6;0;13858;2;0;0;0;0;0;7;0;9824;0;0;0;0;8;0;9864;0;0;0;0;9;0;5344;0;0;0;0
08.09.19;20:15:00;1;970;13126;0;2;0;8292;0;0;0;0;3;0;5352;0;0;0;0;4;0;7574;0;0;0;0;5;0;18844;2;0;0;0;0;0;6;0;13858;2;0;0;0;0;0;7;0;9824;0;0;0;0;8;0;9864;0;0;0;0;9;0;5344;0;0;0;0
08.09.19;20:10:00;1;611;13052;0;2;0;8292;0;0;0;0;3;0;5352;0;0;0;0;4;0;7574;0;0;0;0;5;0;18844;2;0;0;0;0;0;6;0;13858;2;0;0;0;0;0;7;0;9824;0;0;0;0;8;0;9864;0;0;0;0;9;0;5344;0;0;0;0
08.09.19;20:05:00;1;494;13001;0;2;0;8292;0;0;0;0;3;0;5352;0;0;0;0;4;0;7574;0;0;0;0;5;0;18844;2;0;0;0;0;0;6;0;13858;2;0;0;0;0;0;7;0;9824;0;0;0;0;8;0;9864;0;0;0;0;9;0;5344;0;0;0;0
08.09.19;20:00:00;1;398;12964;0;2;0;8292;0;0;0;0;3;0;5352;0;0;0;0;4;0;7574;0;0;0;0;5;0;18844;2;0;0;0;0;0;6;0;13858;2;0;0;0;0;0;7;0;9824;0;0;0;0;8;0;9864;0;0;0;0;9;0;5344;0;0;0;0
08.09.19;19:55:00;1;440;12931;0;2;0;8292;0;0;0;0;3;0;5352;0;0;0;0;4;0;7574;0;0;0;0;5;0;18844;2;0;0;0;0;0;6;0;13858;2;0;0;0;0;0;7;0;9824;0;0;0;0;8;0;9864;0;0;0;0;9;0;5344;0;0;0;0
08.09.19;19:50:00;1;529;12893;0;2;0;8292;0;0;0;0;3;0;5352;0;0;0;0;4;0;7574;0;0;0;0;5;0;18844;2;0;0;0;0;0;6;0;13858;2;0;0;0;0;0;7;0;9824;0;0;0;0;8;0;9864;0;0;0;0;9;0;5344;0;0;0;0
08.09.19;19:45:00;1;521;12849;0;2;0;8292;0;0;0;0;3;0;5352;0;0;0;0;4;0;7574;0;0;0;0;5;0;18844;2;0;0;0;0;0;6;0;13858;2;0;0;0;0;0;7;0;9824;0;0;0;0;8;0;9864;0;0;0;0;9;0;5344;0;0;0;0
08.09.19;19:40:00;1;500;12806;0;2;0;8292;0;0;0;0;3;0;5352;0;0;0;0;4;0;7574;0;0;0;0;5;0;18844;2;0;0;0;0;0;6;0;13858;2;0;0;0;0;0;7;0;9824;0;0;0;0;8;0;9864;0;0;0;0;9;0;5344;0;0;0;0
08.09.19;19:35:00;1;983;12764;0;2;0;8292;0;0;0;0;3;0;5352;0;0;0;0;4;0;7574;0;0;0;0;5;0;18844;2;0;0;0;0;0;6;0;13858;2;0;0;0;0;0;7;0;9824;0;0;0;0;8;0;9864;0;0;0;0;9;0;5344;0;0;0;0
08.09.19;19:30:00;1;482;12704;0;2;0;8292;0;0;131;10;3;0;5352;2;0;283;23;4;0;7574;0;0;53;17;5;0;18844;2;0;0;0;0;0;6;0;13858;1;0;0;0;0;0;7;0;9824;0;0;0;0;8;0;9864;0;0;0;0;9;0;5344;0;0;0;0
08.09.19;19:25:00;1;457;12663;0;2;0;8292;6;0;311;20;3;0;5352;6;0;381;23;4;0;7574;1;0;120;21;5;0;18844;2;0;3;278;303;24;6;0;13858;0;4;3;192;320;23;7;0;9824;0;0;0;0;8;0;9864;0;0;0;0;9;0;5344;0;0;155;11
08.09.19;19:20:00;1;668;12622;0;2;0;8292;6;0;321;20;3;0;5352;6;0;400;23;4;0;7574;1;0;132;21;5;0;18844;1;0;2;302;317;31;6;0;13858;23;3;3;180;375;29;7;0;9824;0;0;98;7;8;0;9864;1;0;270;23;9;0;5344;7;0;290;19
08.09.19;19:15:00;1;506;12572;0;2;0;8292;6;0;347;20;3;0;5352;4;2;426;24;4;0;7574;1;0;169;21;5;0;18844;23;0;8;381;424;31;6;0;13858;23;8;7;325;371;29;7;0;9824;7;0;292;23;8;0;9864;1;0;332;22;9;0;5344;7;0;377;19
08.09.19;19:10:00;1;496;12528;0;2;0;8292;6;0;338;21;3;0;5352;3;1;412;24;4;0;7574;1;0;159;21;5;0;18844;26;0;8;376;376;31;6;0;13858;23;5;2;364;187;23;7;0;9824;7;0;264;18;8;0;9864;7;0;324;21;9;0;5344;7;0;287;15
08.09.19;19:05:00;1;674;12485;0;2;0;8292;6;0;305;21;3;0;5352;6;0;369;24;4;0;7574;1;0;114;21;5;0;18844;94;0;3;322;320;31;6;0;13858;1;0;0;0;0;11;7;0;9824;0;0;0;0;8;0;9864;0;0;0;0;9;0;5344;0;0;0;0
08.09.19;19:00:00;1;917;12422;0;2;0;8292;6;0;314;21;3;0;5352;6;0;382;24;4;0;7574;1;0;122;22;5;0;18844;1;0;0;276;279;32;6;0;13858;0;2;3;120;263;20;7;0;9824;0;0;92;8;8;0;9864;0;0;93;8;9;0;5344;0;0;138;10
08.09.19;18:55:00;1;893;12344;0;2;0;8292;6;0;358;21;3;1;5352;3;5;415;24;4;0;7574;1;0;185;22;5;8;18844;1;0;0;381;582;32;6;0;13858;23;3;5;249;521;30;7;0;9824;6;0;361;24;8;0;9864;6;0;365;24;9;0;5344;6;0;365;20
08.09.19;18:50:00;1;894;12270;0;2;0;8292;6;0;364;21;3;0;5351;6;2;449;24;4;0;7574;1;0;197;22;5;6;18844;1;0;1;389;594;32;6;0;13858;23;3;5;181;537;30;7;0;9824;6;0;376;24;8;0;9864;6;0;383;24;9;0;5344;6;0;415;20
08.09.19;18:45:00;1;995;12195;0;2;0;8292;6;0;349;21;3;0;5351;6;2;427;24;4;0;7574;1;0;173;22;5;0;18843;26;0;1;386;444;33;6;0;13858;23;4;6;321;384;31;7;0;9824;6;0;346;24;8;0;9864;6;0;353;24;9;0;5344;6;0;378;20
08.09.19;18:40:00;1;1033;12110;0;2;0;8292;6;0;364;21;3;1;5351;6;5;425;24;4;0;7574;1;0;196;22;5;7;18843;1;0;0;390;606;33;6;0;13858;23;3;6;368;360;31;7;0;9824;6;0;384;25;8;0;9864;6;0;389;24;9;0;5344;6;0;413;20
08.09.19;18:35:00;1;1024;12024;0;2;0;8292;6;0;359;21;3;0;5351;6;2;437;24;4;0;7574;1;0;189;23;5;12;18842;1;0;1;379;575;33;6;0;13858;23;3;7;330;393;31;7;0;9824;6;0;379;25;8;0;9864;6;0;385;24;9;0;5344;4;0;401;20
08.09.19;18:30:00;1;997;11939;0;2;0;8292;6;0;350;22;3;0;5351;6;1;430;24;4;0;7574;1;0;172;23;5;0;18842;23;0;1;380;401;34;6;0;13858;23;3;6;360;344;32;7;0;9824;6;0;332;25;8;0;9864;6;0;339;24;9;0;5344;6;0;358;20
08.09.19;18:25:00;1;953;11856;0;2;0;8292;6;0;369;22;3;0;5351;4;2;454;24;4;0;7574;1;0;200;23;5;23;18842;1;0;2;381;596;34;6;0;13858;23;4;4;228;538;32;7;0;9824;6;0;378;25;8;0;9864;6;0;382;25;9;0;5344;6;1;389;21
08.09.19;18:20:00;1;854;11776;0;2;0;8292;6;0;387;22;3;2;5351;3;9;455;24;4;0;7574;3;0;213;24;5;73;18840;4;2;14;360;574;35;6;0;13858;8;3;8;479;565;32;7;0;9824;3;4;412;25;8;1;9864;4;4;416;25;9;1;5344;6;2;469;21
08.09.19;18:15:00;1;829;11705;0;2;0;8292;6;0;390;22;3;0;5351;6;11;448;25;4;0;7574;3;0;216;24;5;73;18833;4;0;11;360;575;35;6;25;13858;1;8;15;477;453;33;7;0;9824;6;3;423;25;8;1;9864;6;2;428;25;9;2;5344;6;2;460;21
08.09.19;18:10:00;1;839;11634;0;2;33;8292;6;55;375;22;3;5;5351;6;9;511;25;4;17;7574;3;18;199;24;5;132;18827;4;41;46;360;575;35;6;78;13856;4;36;42;408;379;33;7;18;9824;6;33;416;25;8;17;9864;6;34;433;25;9;1;5344;6;5;517;21
08.09.19;18:05:00;1;1085;11564;0;2;93;8290;4;123;353;22;3;22;5351;6;34;497;25;4;39;7572;3;41;199;24;5;210;18816;4;87;83;360;575;35;6;128;13849;4;69;80;408;379;33;7;61;9823;4;94;403;25;8;62;9863;4;96;406;25;9;7;5343;6;10;530;21
08.09.19;18:00:00;1;858;11481;0;2;66;8282;4;91;366;22;3;6;5349;6;11;524;25;4;39;7569;3;41;199;24;5;192;18798;4;75;72;360;575;35;6;116;13838;4;45;52;408;379;33;7;36;9818;4;53;444;25;8;38;9858;4;55;446;25;9;5;5343;6;10;438;17
08.09.19;17:55:00;1;809;11410;0;2;0;8277;6;0;414;22;3;4;5349;6;10;506;25;4;12;7566;3;12;199;24;5;143;18782;4;42;50;360;575;35;6;56;13829;4;24;33;489;484;32;7;8;9815;6;13;467;25;8;7;9854;6;15;469;25;9;2;5342;0;6;403;16
08.09.19;17:50:00;1;760;11342;0;2;0;8277;6;0;402;22;3;2;5348;6;6;498;25;4;0;7565;3;0;211;24;5;99;18771;4;19;28;360;575;34;6;19;13825;1;8;11;335;327;33;7;4;9814;4;11;430;26;8;3;9854;6;8;371;20;9;2;5342;6;3;499;21
08.09.19;17:45:00;1;735;11279;0;2;0;8277;6;0;392;23;3;0;5348;4;6;480;25;4;0;7565;3;0;213;24;5;12;18763;26;0;0;407;651;34;6;0;13823;8;5;5;438;566;33;7;1;9814;3;4;405;26;8;1;9854;3;3;413;25;9;0;5342;6;2;463;22
08.09.19;17:40:00;1;732;11219;0;2;0;8277;6;0;399;23;3;5;5348;3;15;459;25;4;0;7565;3;0;213;25;5;77;18762;4;4;19;361;574;35;6;6;13823;23;5;11;431;495;33;7;2;9814;6;2;430;26;8;0;9853;6;2;433;26;9;0;5342;0;2;371;17
08.09.19;17:35:00;1;744;11158;0;2;0;8277;6;0;407;23;3;3;5348;6;9;501;26;4;0;7565;3;0;207;25;5;95;18755;4;13;26;361;574;35;6;10;13823;4;5;7;369;431;33;7;5;9813;6;16;423;26;8;2;9853;6;8;448;26;9;0;5342;6;4;495;22
08.09.19;17:30:00;1;697;11096;0;2;0;8277;6;0;401;23;3;1;5348;6;5;498;26;4;0;7565;3;0;211;25;5;80;18747;4;7;21;361;574;35;6;34;13822;1;13;22;475;450;34;7;2;9813;6;3;449;26;8;0;9853;6;4;449;26;9;0;5342;6;3;491;22
08.09.19;17:25:00;1;321;11046;0;2;0;8277;6;0;414;24;3;5;5347;6;12;510;26;4;5;7565;3;5;217;25;5;120;18740;4;34;41;361;574;35;6;76;13818;4;36;43;419;391;34;7;32;9813;6;56;381;27;8;31;9853;6;56;381;26;9;2;5342;3;5;518;22
08.09.19;17:20:00;1;312;11019;0;2;0;8277;6;0;396;24;3;0;5347;6;0;513;26;4;0;7564;3;0;207;25;5;78;18731;4;4;17;361;574;35;6;12;13812;4;9;15;437;531;34;7;0;9810;6;4;441;27;8;0;9851;6;4;443;26;9;1;5342;6;2;483;22
08.09.19;17:15:00;1;251;10993;0;2;7;8277;6;14;391;24;3;0;5347;4;5;493;27;4;1;7564;3;1;199;25;5;97;18724;4;19;30;361;574;35;6;41;13811;1;24;17;458;294;35;7;1;9810;6;4;444;27;8;2;9851;6;5;446;26;9;2;5342;6;3;489;22
08.09.19;17:10:00;1;390;10971;0;2;63;8276;4;97;356;25;3;14;5347;3;28;487;27;4;28;7564;3;29;198;26;5;174;18716;4;61;64;361;574;35;6;86;13808;4;53;36;427;226;35;7;34;9810;6;55;445;27;8;25;9850;6;47;461;27;9;6;5341;6;15;486;23
08.09.19;17:05:00;1;355;10936;0;2;100;8271;4;133;356;25;3;11;5346;6;19;538;27;4;53;7562;3;55;197;26;5;227;18701;4;93;91;361;574;35;6;128;13800;4;83;71;426;302;35;7;67;9808;4;100;441;27;8;66;9849;4;101;445;27;9;6;5341;6;11;531;23
08.09.19;17:00:00;1;465;10904;0;2;254;8262;4;294;371;26;3;154;5345;4;195;494;28;4;186;7557;5;194;221;26;5;457;18681;4;216;193;376;594;35;6;339;13789;4;167;202;528;527;35;7;228;9802;4;272;461;27;8;234;9843;4;278;453;27;9;110;5340;6;140;504;24
08.09.19;16:55:00;1;593;10863;0;2;315;8241;4;359;382;26;3;200;5332;4;244;479;28;4;264;7542;5;274;227;26;5;605;18641;4;295;257;387;611;35;6;466;13759;4;243;265;557;547;35;7;308;9784;4;353;456;27;8;323;9824;4;358;443;27;9;171;5332;4;204;500;24
08.09.19;16:50:00;1;577;10816;0;2;280;8215;4;320;377;26;3;174;5315;4;216;479;28;4;224;7520;5;232;223;26;5;552;18590;4;266;236;387;605;35;6;425;13720;4;209;238;562;545;35;7;239;9757;4;277;467;27;8;248;9797;4;290;451;27;9;138;5318;4;167;501;24
08.09.19;16:45:00;1;597;10768;0;2;268;8191;4;309;368;26;3;167;5301;4;205;485;28;4;216;7501;5;225;221;26;5;536;18545;4;263;229;390;612;35;6;402;13685;4;177;198;560;541;35;7;289;9737;4;325;455;27;8;291;9776;4;332;456;27;9;156;5306;4;186;509;24
08.09.19;16:40:00;1;497;10722;0;2;459;8169;4;505;386;26;3;284;5287;4;330;495;28;4;373;7483;5;388;229;26;5;856;18501;4;420;371;395;630;35;6;636;13652;4;313;336;571;548;35;7;433;9713;4;473;462;27;8;430;9752;4;472;459;27;9;230;5293;4;263;503;24
08.09.19;16:35:00;1;453;10680;0;2;693;8131;4;746;392;26;3;447;5263;4;497;506;28;4;605;7453;5;631;233;26;5;1359;18425;4;685;584;409;649;35;6;874;13596;4;566;384;581;357;35;7;659;9678;4;698;475;27;8;654;9716;4;711;467;27;9;361;5274;4;398;512;24
08.09.19;16:30:00;1;496;10644;0;2;439;8074;4;484;380;26;3;278;5226;4;325;492;28;4;387;7403;5;403;234;26;5;935;18313;4;464;403;400;633;35;6;498;13526;4;344;166;533;226;35;7;416;9623;4;452;472;27;8;426;9662;4;474;461;27;9;230;5244;4;270;500;24
08.09.19;16:25:00;1;591;10602;0;2;287;8037;4;327;384;26;3;177;5203;4;220;491;28;4;246;7370;5;256;226;26;5;619;18238;4;292;266;391;610;35;6;290;13487;4;177;100;427;226;35;7;194;9588;4;238;443;27;8;204;9626;4;243;450;27;9;115;5225;4;141;489;24
08.09.19;16:20:00;1;1344;10530;0;2;268;8013;4;308;380;26;3;165;5188;4;204;481;28;4;222;7349;5;232;220;26;5;565;18187;4;272;241;387;608;35;6;266;13463;4;168;94;427;226;35;7;210;9572;4;243;433;27;8;202;9609;4;244;449;27;9;111;5215;4;141;483;23
08.09.19;16:15:00;1;624;10422;0;2;223;7991;4;260;364;26;3;138;5174;4;175;474;28;4;189;7331;5;197;220;26;5;505;18139;4;241;214;384;599;35;6;245;13440;4;166;100;427;226;35;7;140;9554;4;172;419;27;8;140;9592;4;178;408;27;9;32;5206;3;43;521;23
08.09.19;16:10:00;1;1126;10371;0;2;219;7972;4;256;365;26;3;134;5163;4;171;464;28;4;171;7315;5;178;221;26;5;448;18098;4;208;189;379;592;35;6;235;13420;4;170;91;486;226;35;7;161;9543;4;200;415;27;8;170;9580;4;201;420;27;9;88;5202;4;115;469;24
08.09.19;16:05:00;1;723;10282;0;2;317;7954;4;358;385;26;3;197;5152;4;241;479;28;4;262;7300;5;273;227;26;5;637;18060;4;305;270;391;619;35;6;345;13400;4;239;117;554;226;35;7;268;9529;4;313;448;28;8;265;9566;4;311;464;27;9;151;5195;4;175;499;24
08.09.19;16:00:00;1;1400;10203;0;2;408;7927;4;453;385;26;3;255;5135;4;303;486;28;4;338;7279;5;352;227;27;5;792;18005;4;397;341;394;626;36;6;432;13370;4;330;151;563;226;35;7;408;9507;4;456;470;28;8;412;9545;4;456;452;27;9;218;5183;4;251;508;24
08.09.19;15:55:00;1;610;10111;0;2;491;7894;4;534;376;26;3;309;5114;4;359;499;28;4;418;7251;5;435;232;27;5;1006;17938;4;506;432;407;645;36;6;540;13334;4;390;175;576;226;35;7;517;9474;4;566;465;28;8;521;9510;4;573;458;27;9;279;5164;4;322;510;24
08.09.19;15:50:00;1;1455;10060;0;2;430;7853;4;476;386;26;3;270;5088;4;317;494;28;4;371;7216;5;387;230;27;5;922;17855;4;452;396;402;644;36;6;494;13289;4;345;157;558;225;35;7;460;9430;4;503;470;28;8;466;9467;4;509;452;27;9;250;5141;4;290;501;24
08.09.19;15:45:00;1;2565;9915;0;2;241;7817;4;281;364;26;3;147;5066;4;188;495;28;4;205;7185;5;213;219;27;5;580;17780;4;281;250;378;605;36;6;288;13248;4;199;110;442;226;35;7;286;9392;4;327;459;28;8;296;9428;4;333;455;27;9;159;5120;4;194;473;24
08.09.19;15:40:00;1;2609;9704;0;2;115;7796;4;149;356;26;3;62;5053;4;102;473;28;4;77;7168;5;80;201;27;5;275;17735;4;122;118;361;574;36;6;142;13226;4;96;59;427;226;35;7;102;9367;4;140;438;28;8;100;9403;4;140;445;27;9;24;5106;4;32;523;24
08.09.19;15:35:00;1;2679;9485;0;2;115;7787;4;149;358;26;3;64;5048;4;102;474;28;4;72;7161;3;75;198;27;5;261;17712;4;111;109;361;574;36;6;131;13214;4;89;55;427;226;35;7;63;9359;4;89;335;22;8;80;9394;4;119;429;27;9;7;5104;4;12;529;24
08.09.19;15:30:00;1;2674;9258;0;2;231;7777;4;268;365;26;3;138;5042;4;178;491;28;4;172;7155;5;179;220;27;5;476;17689;4;229;204;378;603;36;6;226;13203;4;149;87;427;226;35;7;200;9352;4;238;437;28;8;199;9388;4;240;439;27;9;106;5103;4;136;487;24
08.09.19;15:25:00;1;2628;9035;0;2;301;7758;4;343;383;26;3;188;5031;4;230;495;28;4;251;7141;5;261;227;27;5;641;17648;4;311;274;391;614;36;6;300;13183;4;206;113;427;226;35;7;280;9335;4;328;455;28;8;290;9371;4;334;459;28;9;151;5094;4;188;509;25
08.09.19;15:20:00;1;2028;8855;0;2;287;7733;4;328;378;26;3;179;5016;4;223;483;28;4;236;7120;5;246;225;27;5;616;17594;4;290;264;385;624;36;6;288;13158;4;183;104;427;226;35;7;274;9312;4;315;453;28;8;281;9347;4;319;457;28;9;153;5082;4;182;501;25
08.09.19;15:15:00;1;1135;8691;0;2;209;7709;4;248;368;26;3;128;5000;4;167;493;28;4;163;7100;5;170;219;27;5;463;17543;4;215;201;371;577;36;6;227;13134;4;145;83;427;226;35;7;205;9289;4;244;448;28;8;212;9324;4;248;434;28;9;112;5069;4;144;495;25
08.09.19;15:10:00;1;763;8603;0;2;189;7691;4;224;361;26;3;111;4990;4;152;481;29;4;145;7086;5;151;217;27;5;423;17506;4;194;184;361;574;36;6;212;13115;4;155;93;427;226;35;7;180;9272;4;221;441;28;8;182;9306;4;221;440;28;9;100;5060;4;129;462;25
08.09.19;15:05:00;1;601;8539;0;2;129;7675;4;165;364;27;3;76;4980;4;114;457;29;4;90;7074;3;93;199;28;5;298;17471;4;133;124;361;574;36;6;153;13098;4;95;54;427;226;35;7;105;9257;4;150;437;28;8;116;9290;4;155;427;28;9;24;5051;6;35;526;25
08.09.19;15:00:00;1;635;8489;0;2;158;7664;4;192;363;27;3;93;4974;4;131;482;29;4;114;7066;5;118;211;28;5;325;17446;4;146;135;361;574;36;6;199;13085;4;87;91;427;377;35;7;135;9248;4;176;442;28;8;143;9281;4;181;421;28;9;73;5049;4;105;466;25
08.09.19;14:55:00;1;524;8439;0;2;318;7651;4;358;375;27;3;195;4966;4;240;484;29;4;250;7057;5;260;227;28;5;583;17418;4;274;251;387;621;36;6;389;13067;4;175;237;427;541;35;7;288;9237;4;331;460;28;8;294;9269;4;338;451;28;9;160;5043;4;190;501;26
08.09.19;14:50:00;1;519;8394;0;2;283;7625;4;325;375;27;3;179;4950;4;220;483;29;4;232;7036;5;241;224;28;5;593;17368;4;287;245;388;617;36;6;403;13034;4;178;234;427;540;35;7;293;9213;4;330;463;29;8;288;9245;4;335;464;28;9;164;5030;4;195;495;26
08.09.19;14:45:00;1;509;8350;0;2;235;7602;4;273;363;27;3;143;4935;4;181;463;29;4;179;7017;5;186;221;28;5;481;17320;4;222;204;389;613;36;6;355;13001;4;148;175;512;533;35;7;261;9189;4;305;446;29;8;262;9220;4;304;448;28;9;139;5016;4;172;499;26
08.09.19;14:40:00;1;514;8307;0;2;267;7582;4;306;372;28;3;164;4923;4;205;486;29;4;214;7002;5;223;223;28;5;547;17279;4;271;233;388;602;36;6;413;12971;4;199;224;527;530;35;7;241;9167;4;276;377;24;8;286;9199;4;332;457;28;9;156;5004;4;190;501;26
08.09.19;14:35:00;1;457;8266;0;2;226;7560;4;264;365;28;3;138;4909;4;176;463;30;4;177;6984;5;184;217;29;5;493;17233;4;231;216;380;610;36;6;378;12936;4;191;222;541;532;35;7;227;9143;4;264;461;29;8;235;9175;4;281;440;29;9;129;4992;4;161;488;26
08.09.19;14:30:00;1;343;8228;0;2;302;7541;4;344;369;28;3;187;4898;4;229;490;30;4;243;6969;5;253;221;29;5;622;17192;4;301;268;386;620;36;6;466;12905;4;219;250;549;537;35;7;229;9124;4;255;361;23;8;237;9148;0;267;349;23;9;153;4981;4;183;474;27
08.09.19;14:25:00;1;369;8200;0;2;339;7516;4;384;372;29;3;213;4883;4;258;481;30;4;286;6949;5;298;225;29;5;733;17140;4;367;316;389;613;36;6;553;12866;4;274;298;543;537;35;7;270;9100;4;302;341;23;8;273;9132;4;302;338;23;9;180;4968;4;216;470;27